CIUDAD REAL current weather conditions

sailwx.info

Wind from 290 at 3 knots

Air temperature 27.0° C
Visibility: greater than 5.4 NM
Dewpoint 7.0° C

Last reported at 2015-Jul-30 21:00 UTC.
Time now 2015-Jul-31 01:03 UTC

Location: N 38°59' W 003°55'.
View on Google Maps.

See reports from other nearby stations

  
Tides and Currents Weather Stations Pressure Air Temp Water Temp Dewpoint Dewpoint Depression Visibility Wind Speed Wind Dir Waves Ship Positions
date/time (UTC)wind fromknots sea level pressurealtimeterstation pressurevisibilityair tempwater tempwave heightnotes
2015-Jul-30 21:00 290 3 5.427.0
2015-Jul-30 20:00 300 6 5.429.0
2015-Jul-30 19:00 290 10 5.431.0
2015-Jul-30 18:00 290 13 gusting 23 33.0
2015-Jul-30 17:00 280 12 34.0
2015-Jul-30 16:00 270 12 34.0
2015-Jul-30 15:44 280 13 34.0
2015-Jul-30 15:00 270 9 gusting 19 5.434.0
2015-Jul-30 13:00 260 12 33.0
2015-Jul-30 12:00 260 11 33.0
2015-Jul-30 11:00 270 10 gusting 20 31.0
2015-Jul-30 10:00 250 7 30.0
2015-Jul-30 09:00 270 7 28.0
2015-Jul-30 08:00 260 5 26.0
2015-Jul-30 07:00 250 3 24.0
2015-Jul-30 06:00 260 7 21.0
2015-Jul-30 05:00 260 6 21.0
2015-Jul-29 21:00 260 5 28.0
2015-Jul-29 20:00 290 4 30.0
2015-Jul-29 19:00 290 12 33.0
2015-Jul-29 18:00 290 14 35.0
2015-Jul-29 17:00 290 18 36.0
2015-Jul-29 16:00 290 15 gusting 25 36.0
2015-Jul-29 15:00 280 17 36.0
2015-Jul-29 14:00 260 13 gusting 24 37.0
2015-Jul-29 13:00 280 9 36.0
2015-Jul-29 12:00 270 10 36.0
2015-Jul-29 10:00 240 2 33.0
2015-Jul-29 09:00 260 3 31.0
2015-Jul-29 08:00 270 6 28.0
2015-Jul-29 07:00 250 3 25.0
2015-Jul-29 06:00 21.0
2015-Jul-29 05:00 220 1 21.0